Albuquerque, NM

10:44 AM MDT on August 21, 2017 (GMT -0600)
Albuquerque International Sunport

Weather History for KABQ - June, 2013

Change the Weather History Date:

Thursday, June 13, 2013

  Actual Average Record
Temperature  
Mean Temperature 85 °F 74 °F  
Max Temperature 98 °F 88 °F 100 °F (1956)
Min Temperature 71 °F 61 °F 37 °F (1912)
Degree Days  
Heating Degree Days 0 0  
Month to date heating degree days 0 0  
Since 1 June heating degree days 0 0  
Since 1 July heating degree days 3894 4175  
Cooling Degree Days 20 10  
Month to date cooling degree days 182 102  
Year to date cooling degree days 299 200  
Since 1 June cooling degree days 182 102  
Growing Degree Days 35 (Base 50)    
Moisture  
Dew Point 36 °F    
Average Humidity 21    
Maximum Humidity 32    
Minimum Humidity 10    
Precipitation  
Precipitation T in 0.02 in 1.08 in (1973)
Month to date precipitation T 0.19  
Year to date precipitation 0.68 2.73  
Snow  
Snow 0.00 in - - ()
Month to date snowfall 0.0  
Since 1 June snowfall 0.0  
Since 1 July snowfall 3.5  
Snow Depth 0.00 in    
Sea Level Pressure  
Sea Level Pressure 29.85 in    
Wind  
Wind Speed 10 mph (SSE)    
Max Wind Speed 37 mph    
Max Gust Speed 47 mph    
Visibility 10 miles    
Events Rain , Thunderstorm    
T = Trace of Precipitation, MM = Missing Value Source: NWS Daily Summary

Daily Weather History Graph

Daily Weather History Graph

Search for Another Location

Airport or City:

Trip Planner

Search our weather history database for the weather conditions in past years. The results will help you decide how hot, cold, wet, or windy it might be!

Date:

Astronomy

Jun. 13, 2013 Rise Set
Actual Time 5:51 AM MDT 8:21 PM MDT
Civil Twilight 5:22 AM MDT 8:51 PM MDT
Nautical Twilight 4:45 AM MDT 9:27 PM MDT
Astronomical Twilight 4:05 AM MDT 10:08 PM MDT
Moon 10:22 AM MDT (6/13) 11:39 PM MDT (6/13)
Length of Visible Light 15h 29m
Length of Day
14h 29m
Waxing Crescent, 22% of the Moon is Illuminated
Jun 13
Waxing Crescent
Jun 16
First Quarter
Jun 23
Full
Jun 29
Last Quarter
Jul 8
New

Hourly Weather History & Observations

Time (MDT) Temp. Dew Point Humidity Pressure Visibility Wind Dir Wind Speed Gust Speed Precip Events Conditions
12:52 AM 82.9 °F 28.9 °F 14% 29.81 in 10.0 mi SW 4.6 mph - N/A   Partly Cloudy
1:52 AM 75.0 °F 28.0 °F 18% 29.82 in 10.0 mi East 3.5 mph - N/A   Partly Cloudy
2:52 AM 78.1 °F 30.9 °F 18% 29.82 in 10.0 mi WNW 4.6 mph - N/A   Clear
3:52 AM 73.9 °F 28.9 °F 19% 29.83 in 10.0 mi North 9.2 mph - N/A   Clear
4:52 AM 73.9 °F 33.1 °F 22% 29.83 in 10.0 mi NE 4.6 mph - N/A   Clear
5:52 AM 72.0 °F 34.0 °F 25% 29.86 in 10.0 mi NNE 9.2 mph - N/A   Partly Cloudy
6:52 AM 73.9 °F 36.0 °F 25% 29.86 in 10.0 mi North 4.6 mph - N/A   Partly Cloudy
7:52 AM 73.9 °F 37.9 °F 27% 29.88 in 10.0 mi Calm Calm - N/A   Scattered Clouds
8:52 AM 78.1 °F 39.0 °F 25% 29.88 in 10.0 mi NNW 5.8 mph - N/A   Scattered Clouds
9:52 AM 82.9 °F 37.9 °F 20% 29.88 in 10.0 mi Calm Calm - N/A   Scattered Clouds
10:52 AM 84.9 °F 41.0 °F 21% 29.87 in 10.0 mi Variable 3.5 mph - N/A   Scattered Clouds
11:52 AM 89.1 °F 41.0 °F 19% 29.85 in 10.0 mi SW 5.8 mph - N/A   Scattered Clouds
12:52 PM 93.9 °F 41.0 °F 16% 29.81 in 10.0 mi South 9.2 mph - N/A   Scattered Clouds
1:52 PM 95.0 °F 39.0 °F 14% 29.78 in 10.0 mi SW 9.2 mph 18.4 mph N/A   Scattered Clouds
2:52 PM 97.0 °F 35.1 °F 11% 29.73 in 10.0 mi SSW 8.1 mph 17.3 mph N/A   Scattered Clouds
3:52 PM 97.0 °F 33.1 °F 11% 29.72 in 10.0 mi SW 9.2 mph 17.3 mph N/A   Mostly Cloudy
4:52 PM 97.0 °F 30.9 °F 10% 29.70 in 10.0 mi SW 11.5 mph - N/A   Mostly Cloudy
5:24 PM 91.4 °F 30.2 °F 11% 30.02 in 9.0 mi SSE 5.8 mph - N/A Thunderstorm Thunderstorm
5:52 PM 88.0 °F 37.9 °F 17% 29.73 in 9.0 mi East 28.8 mph 39.1 mph N/A Thunderstorm Thunderstorm
6:12 PM 91.4 °F 32.0 °F 12% 30.02 in 10.0 mi East 11.5 mph 19.6 mph N/A   Mostly Cloudy
6:52 PM 90.0 °F 34.0 °F 14% 29.73 in 10.0 mi NNE 9.2 mph 19.6 mph N/A   Mostly Cloudy
7:52 PM 88.0 °F 33.1 °F 14% 29.78 in 9.0 mi WSW 16.1 mph 24.2 mph N/A Thunderstorm Thunderstorm
8:38 PM 80.6 °F 44.6 °F 28% 30.10 in 10.0 mi ENE 17.3 mph 28.8 mph 0.00 in   Mostly Cloudy
8:52 PM 80.1 °F 41.0 °F 25% 29.81 in 10.0 mi East 17.3 mph - 0.00 in   Mostly Cloudy
9:50 PM 86.0 °F 33.8 °F 15% 30.11 in 10.0 mi West 20.7 mph 47.2 mph 0.00 in   Squalls
9:52 PM 86.0 °F 34.0 °F 16% 29.81 in 10.0 mi WSW 28.8 mph 47.2 mph 0.00 in   Squalls
10:02 PM 86.0 °F 33.8 °F 15% 30.10 in 10.0 mi SSW 9.2 mph 35.7 mph N/A   Mostly Cloudy
10:37 PM 80.6 °F 39.2 °F 23% 30.11 in 10.0 mi East 16.1 mph - N/A   Mostly Cloudy
10:52 PM 79.0 °F 42.1 °F 27% 29.82 in 10.0 mi East 13.8 mph - N/A   Mostly Cloudy
11:52 PM 78.1 °F 46.0 °F 32% 29.81 in 10.0 mi East 12.7 mph - N/A   Mostly Cloudy